Tracking 18840 objects as of 18-November-2017
HD Live streaming from Space Station
objects crossing your sky now

FENGYUN 1C DEB

Track FENGYUN 1C DEB now!
10-day predictions


NORAD ID: 30823
Int'l Code: 1999-025AVH
Perigee: 799.2 km
Apogee: 1,006.5 km
Inclination: 98.8 °
Period: 102.9 minutes
Semi major axis: 7273 km
RCS: 0.0071 m2 (small)
Launch date: May 10, 1999
Source: People's Republic of China (PRC)
Launch site: Taiyaun Space Center, China (TSC)

Note: This is SATELLITE DEBRIS
aabbcc
Your satellite tracking list
Your tracking list is empty




NASA's NSSDC Master Catalog

Two Line Element Set (TLE):
1 30823U 99025AVH 17321.63504887 +.00000455 +00000-0 +31223-3 0  9994
2 30823 098.7843 208.0578 0142504 028.9682 034.6745 13.99437119547897
Source of the keplerian elements: AFSPC